Time,TemperatureF,DewpointF,PressureIn,WindDirection,WindDirectionDegrees,WindSpeedMPH,WindSpeedGustMPH,Humidity,HourlyPrecipIn,Conditions,Clouds,dailyrainin,SoftwareType,DateUTC
2013-04-15 00:00:00,54.9,53.4,29.93,SW,224,0.0,1.0,95,0.00,,,0.12,meteohub,2013-04-15 04:00:00,
2013-04-15 00:05:00,54.9,53.8,29.93,SW,224,0.0,0.0,96,0.00,,,0.00,meteohub,2013-04-15 04:05:00,
2013-04-15 00:10:00,54.9,53.8,29.93,SW,224,0.0,1.0,96,0.00,,,0.00,meteohub,2013-04-15 04:10:00,
2013-04-15 00:15:00,54.9,53.8,29.93,SW,219,0.0,1.0,96,0.00,,,0.00,meteohub,2013-04-15 04:15:00,
2013-04-15 00:20:00,54.9,53.8,29.94,SW,219,0.0,1.0,96,0.00,,,0.00,meteohub,2013-04-15 04:20:00,
2013-04-15 00:25:00,54.9,53.8,29.93,NNW,347,0.0,1.0,96,0.00,,,0.00,meteohub,2013-04-15 04:25:00,
2013-04-15 00:30:00,54.9,53.8,29.94,SSE,167,0.0,1.0,96,0.00,,,0.00,meteohub,2013-04-15 04:30:00,
2013-04-15 00:35:00,55.0,54.0,29.94,South,173,0.0,1.0,96,0.00,,,0.00,meteohub,2013-04-15 04:35:00,
2013-04-15 00:40:00,55.0,54.0,29.93,North,352,0.0,1.0,96,0.00,,,0.00,meteohub,2013-04-15 04:40:00,
2013-04-15 00:45:00,55.0,54.0,29.94,NW,313,0.0,1.0,96,0.00,,,0.00,meteohub,2013-04-15 04:45:00,
2013-04-15 00:51:00,55.0,54.0,29.94,SSE,165,0.0,5.0,96,0.00,,,0.00,meteohub,2013-04-15 04:51:00,
2013-04-15 00:56:00,55.0,54.0,29.94,SE,145,1.0,5.0,96,0.00,,,0.00,meteohub,2013-04-15 04:56:00,
2013-04-15 01:01:00,55.2,54.1,29.94,SE,143,0.0,2.0,96,0.00,,,0.00,meteohub,2013-04-15 05:01:00,
2013-04-15 01:06:00,55.2,54.1,29.94,SSE,159,1.0,2.0,96,0.00,,,0.00,meteohub,2013-04-15 05:06:00,
2013-04-15 01:11:00,55.2,54.1,29.94,SSE,159,0.0,2.0,96,0.01,,,0.01,meteohub,2013-04-15 05:11:00,
2013-04-15 01:16:00,55.2,54.1,29.94,SSE,159,0.0,2.0,96,0.01,,,0.01,meteohub,2013-04-15 05:16:00,
2013-04-15 01:21:00,55.2,54.1,29.93,North,356,0.0,2.0,96,0.01,,,0.01,meteohub,2013-04-15 05:21:00,
2013-04-15 01:26:00,55.2,54.1,29.93,North,356,1.0,2.0,96,0.01,,,0.01,meteohub,2013-04-15 05:26:00,
2013-04-15 01:31:00,55.2,54.1,29.93,North,355,0.0,2.0,96,0.01,,,0.01,meteohub,2013-04-15 05:31:00,
2013-04-15 01:36:00,55.2,54.1,29.93,North,355,0.0,1.0,96,0.02,,,0.02,meteohub,2013-04-15 05:36:00,
2013-04-15 01:41:00,55.0,54.0,29.94,WNW,283,0.0,1.0,96,0.02,,,0.02,meteohub,2013-04-15 05:41:00,
2013-04-15 01:46:00,55.2,54.1,29.94,WNW,283,0.0,1.0,96,0.02,,,0.02,meteohub,2013-04-15 05:46:00,
2013-04-15 01:52:00,55.2,54.1,29.93,West,280,0.0,1.0,96,0.02,,,0.02,meteohub,2013-04-15 05:52:00,
2013-04-15 01:57:00,55.2,54.1,29.93,West,280,0.0,1.0,96,0.02,,,0.02,meteohub,2013-04-15 05:57:00,
2013-04-15 02:02:00,55.2,54.1,29.93,WNW,283,0.0,1.0,96,0.03,,,0.03,meteohub,2013-04-15 06:02:00,
2013-04-15 02:07:00,55.0,54.0,29.93,WNW,283,0.0,1.0,96,0.02,,,0.03,meteohub,2013-04-15 06:07:00,
2013-04-15 02:12:00,55.0,54.0,29.93,South,184,0.0,1.0,96,0.02,,,0.03,meteohub,2013-04-15 06:12:00,
2013-04-15 02:17:00,55.2,54.1,29.93,South,185,0.0,2.0,96,0.02,,,0.03,meteohub,2013-04-15 06:17:00,
2013-04-15 02:22:00,55.2,54.1,29.93,SSW,193,0.0,2.0,96,0.03,,,0.04,meteohub,2013-04-15 06:22:00,
2013-04-15 02:27:00,55.0,54.0,29.92,SSW,193,0.0,2.0,96,0.03,,,0.04,meteohub,2013-04-15 06:27:00,
2013-04-15 02:32:00,55.0,54.0,29.93,SSW,193,0.0,1.0,96,0.03,,,0.04,meteohub,2013-04-15 06:32:00,
2013-04-15 02:37:00,55.0,54.0,29.92,SSW,193,0.0,1.0,96,0.02,,,0.04,meteohub,2013-04-15 06:37:00,
2013-04-15 02:42:00,55.0,54.0,29.92,SSW,193,0.0,0.0,96,0.02,,,0.04,meteohub,2013-04-15 06:42:00,
2013-04-15 02:47:00,55.0,54.0,29.92,SSW,193,0.0,0.0,96,0.02,,,0.04,meteohub,2013-04-15 06:47:00,
2013-04-15 02:52:00,55.0,54.0,29.91,SSW,193,0.0,0.0,96,0.02,,,0.04,meteohub,2013-04-15 06:52:00,
2013-04-15 02:57:00,55.0,54.0,29.91,SSW,193,0.0,0.0,96,0.01,,,0.04,meteohub,2013-04-15 06:57:00,
2013-04-15 03:02:00,55.0,54.0,29.91,SSW,193,0.0,0.0,96,0.01,,,0.04,meteohub,2013-04-15 07:02:00,
2013-04-15 03:41:00,55.2,54.3,29.91,WNW,297,0.0,1.0,97,0.00,,,0.04,meteohub,2013-04-15 07:41:00,
2013-04-15 03:47:00,55.2,54.3,29.91,WNW,297,0.0,1.0,97,0.00,,,0.04,meteohub,2013-04-15 07:47:00,
2013-04-15 03:48:00,55.2,54.3,29.91,WNW,297,0.0,1.0,97,0.00,,,0.04,meteohub,2013-04-15 07:48:00,
2013-04-15 03:49:00,55.2,54.3,29.91,WNW,297,0.0,1.0,97,0.00,,,0.04,meteohub,2013-04-15 07:49:00,
2013-04-15 03:53:00,55.2,54.3,29.91,WNW,297,0.0,1.0,97,0.00,,,0.04,meteohub,2013-04-15 07:53:00,
2013-04-15 03:58:00,55.2,54.3,29.92,WNW,296,0.0,1.0,97,0.00,,,0.04,meteohub,2013-04-15 07:58:00,
2013-04-15 04:03:00,55.2,54.3,29.92,WNW,295,0.0,1.0,97,0.00,,,0.04,meteohub,2013-04-15 08:03:00,
2013-04-15 04:08:00,55.2,54.3,29.92,WNW,290,0.0,1.0,97,0.00,,,0.04,meteohub,2013-04-15 08:08:00,
2013-04-15 04:13:00,55.2,54.3,29.92,SW,221,1.0,1.0,97,0.00,,,0.04,meteohub,2013-04-15 08:13:00,
2013-04-15 04:18:00,55.2,54.3,29.92,South,170,0.0,1.0,97,0.00,,,0.04,meteohub,2013-04-15 08:18:00,
2013-04-15 04:23:00,55.4,54.5,29.92,South,171,0.0,1.0,97,0.00,,,0.04,meteohub,2013-04-15 08:23:00,
2013-04-15 04:28:00,55.4,54.5,29.92,South,176,0.0,1.0,97,0.00,,,0.04,meteohub,2013-04-15 08:28:00,
2013-04-15 04:33:00,55.4,54.5,29.92,South,176,0.0,1.0,97,0.00,,,0.04,meteohub,2013-04-15 08:33:00,
2013-04-15 04:35:00,55.4,54.5,29.93,South,176,0.0,1.0,97,0.00,,,0.04,meteohub,2013-04-15 08:35:00,
2013-04-15 04:40:00,55.4,54.5,29.93,South,176,0.0,0.0,97,0.00,,,0.04,meteohub,2013-04-15 08:40:00,
2013-04-15 04:45:00,55.6,54.7,29.93,South,176,0.0,1.0,97,0.00,,,0.04,meteohub,2013-04-15 08:45:00,
2013-04-15 04:50:00,55.6,54.7,29.94,South,176,0.0,0.0,97,0.00,,,0.04,meteohub,2013-04-15 08:50:00,
2013-04-15 04:55:00,55.6,54.7,29.94,South,175,0.0,0.0,97,0.00,,,0.04,meteohub,2013-04-15 08:55:00,
2013-04-15 05:00:00,55.6,54.7,29.94,South,176,0.0,0.0,97,0.00,,,0.04,meteohub,2013-04-15 09:00:00,
2013-04-15 05:05:00,55.6,54.7,29.94,South,176,0.0,0.0,97,0.00,,,0.04,meteohub,2013-04-15 09:05:00,
2013-04-15 05:10:00,55.6,54.7,29.94,South,176,0.0,0.0,97,0.00,,,0.04,meteohub,2013-04-15 09:10:00,
2013-04-15 05:15:00,55.6,54.7,29.94,South,176,0.0,0.0,97,0.00,,,0.04,meteohub,2013-04-15 09:15:00,
2013-04-15 05:20:00,55.6,54.7,29.94,South,176,0.0,0.0,97,0.00,,,0.04,meteohub,2013-04-15 09:20:00,
2013-04-15 05:26:00,55.6,54.7,29.94,South,176,0.0,0.0,97,0.00,,,0.04,meteohub,2013-04-15 09:26:00,
2013-04-15 05:31:00,55.6,54.7,29.94,South,175,0.0,0.0,97,0.00,,,0.04,meteohub,2013-04-15 09:31:00,
2013-04-15 05:36:00,55.6,54.7,29.94,South,176,0.0,0.0,97,0.00,,,0.04,meteohub,2013-04-15 09:36:00,
2013-04-15 05:41:00,55.6,54.7,29.94,South,176,0.0,0.0,97,0.00,,,0.04,meteohub,2013-04-15 09:41:00,
2013-04-15 05:46:00,55.6,54.7,29.94,South,176,0.0,0.0,97,0.00,,,0.04,meteohub,2013-04-15 09:46:00,
2013-04-15 05:51:00,55.6,54.7,29.94,South,176,0.0,0.0,97,0.00,,,0.04,meteohub,2013-04-15 09:51:00,
2013-04-15 05:56:00,55.8,54.9,29.94,South,176,0.0,0.0,97,0.00,,,0.04,meteohub,2013-04-15 09:56:00,
2013-04-15 06:01:00,55.8,54.9,29.94,South,176,0.0,0.0,97,0.00,,,0.04,meteohub,2013-04-15 10:01:00,
2013-04-15 06:06:00,55.8,54.9,29.94,South,176,0.0,0.0,97,0.00,,,0.04,meteohub,2013-04-15 10:06:00,
2013-04-15 06:11:00,55.6,54.7,29.94,South,176,0.0,0.0,97,0.00,,,0.04,meteohub,2013-04-15 10:11:00,
2013-04-15 06:16:00,55.6,54.7,29.95,South,175,0.0,0.0,97,0.00,,,0.04,meteohub,2013-04-15 10:16:00,
2013-04-15 06:22:00,55.6,54.7,29.95,South,176,0.0,0.0,97,0.00,,,0.04,meteohub,2013-04-15 10:22:00,
2013-04-15 06:27:00,55.6,54.7,29.95,South,176,0.0,0.0,97,0.00,,,0.04,meteohub,2013-04-15 10:27:00,
2013-04-15 06:32:00,55.6,54.7,29.95,South,176,0.0,0.0,97,0.00,,,0.04,meteohub,2013-04-15 10:32:00,
2013-04-15 06:37:00,55.6,54.7,29.95,South,176,0.0,1.0,97,0.00,,,0.04,meteohub,2013-04-15 10:37:00,
2013-04-15 06:42:00,55.6,54.7,29.95,South,176,0.0,1.0,97,0.00,,,0.04,meteohub,2013-04-15 10:42:00,
2013-04-15 06:47:00,55.6,54.7,29.95,SE,146,0.0,1.0,97,0.00,,,0.04,meteohub,2013-04-15 10:47:00,
2013-04-15 06:52:00,55.6,54.7,29.95,SSW,200,0.0,1.0,97,0.00,,,0.04,meteohub,2013-04-15 10:52:00,
2013-04-15 06:57:00,55.6,54.7,29.96,SSW,200,0.0,1.0,97,0.00,,,0.04,meteohub,2013-04-15 10:57:00,
2013-04-15 07:02:00,55.6,54.7,29.96,SSW,200,0.0,1.0,97,0.00,,,0.04,meteohub,2013-04-15 11:02:00,
2013-04-15 07:07:00,55.6,54.7,29.96,SSW,200,0.0,0.0,97,0.00,,,0.04,meteohub,2013-04-15 11:07:00,
2013-04-15 07:12:00,55.6,54.7,29.96,SSW,200,0.0,0.0,97,0.00,,,0.04,meteohub,2013-04-15 11:12:00,
2013-04-15 07:17:00,55.6,54.7,29.96,NNW,335,0.0,0.0,97,0.00,,,0.04,meteohub,2013-04-15 11:17:00,
2013-04-15 07:22:00,55.6,54.7,29.96,NNW,335,0.0,1.0,97,0.00,,,0.04,meteohub,2013-04-15 11:22:00,
2013-04-15 07:27:00,55.6,54.7,29.96,NNW,334,0.0,1.0,97,0.00,,,0.04,meteohub,2013-04-15 11:27:00,
2013-04-15 07:32:00,55.6,54.7,29.96,NNW,335,0.0,1.0,97,0.00,,,0.04,meteohub,2013-04-15 11:32:00,
2013-04-15 07:37:00,55.6,54.7,29.97,NNW,334,0.0,1.0,97,0.00,,,0.04,meteohub,2013-04-15 11:37:00,
2013-04-15 07:42:00,55.6,54.7,29.97,NNW,335,0.0,1.0,97,0.00,,,0.04,meteohub,2013-04-15 11:42:00,
2013-04-15 07:47:00,55.8,54.9,29.97,NNW,335,0.0,1.0,97,0.00,,,0.04,meteohub,2013-04-15 11:47:00,
2013-04-15 07:53:00,55.8,54.9,29.98,NNW,335,0.0,1.0,97,0.00,,,0.04,meteohub,2013-04-15 11:53:00,
2013-04-15 07:58:00,55.8,54.9,29.98,NNW,335,0.0,1.0,97,0.00,,,0.04,meteohub,2013-04-15 11:58:00,
2013-04-15 08:03:00,55.8,54.9,29.98,NNW,335,0.0,0.0,97,0.00,,,0.04,meteohub,2013-04-15 12:03:00,
2013-04-15 08:08:00,55.9,55.4,29.99,NNW,335,0.0,1.0,98,0.00,,,0.04,meteohub,2013-04-15 12:08:00,
2013-04-15 08:13:00,55.9,55.0,29.99,NNW,335,0.0,1.0,97,0.00,,,0.04,meteohub,2013-04-15 12:13:00,
2013-04-15 08:18:00,55.9,55.4,29.99,NNW,335,0.0,1.0,98,0.00,,,0.04,meteohub,2013-04-15 12:18:00,
2013-04-15 08:23:00,55.9,55.0,29.99,NNW,335,0.0,0.0,97,0.00,,,0.04,meteohub,2013-04-15 12:23:00,
2013-04-15 08:28:00,55.9,55.0,30.00,NNW,335,0.0,0.0,97,0.00,,,0.04,meteohub,2013-04-15 12:28:00,
2013-04-15 08:33:00,56.1,55.6,30.00,NNW,335,0.0,1.0,98,0.00,,,0.04,meteohub,2013-04-15 12:33:00,
2013-04-15 08:39:00,56.1,55.2,30.00,NNW,335,0.0,1.0,97,0.00,,,0.04,meteohub,2013-04-15 12:39:00,
2013-04-15 08:44:00,56.1,55.6,30.00,North,353,0.0,1.0,98,0.00,,,0.04,meteohub,2013-04-15 12:44:00,
2013-04-15 08:49:00,56.3,55.4,30.00,North,353,0.0,1.0,97,0.00,,,0.04,meteohub,2013-04-15 12:49:00,
2013-04-15 08:54:00,56.5,55.9,30.00,North,353,0.0,1.0,98,0.00,,,0.04,meteohub,2013-04-15 12:54:00,
2013-04-15 08:59:00,56.5,55.6,30.01,North,353,0.0,1.0,97,0.00,,,0.04,meteohub,2013-04-15 12:59:00,
2013-04-15 09:04:00,56.5,55.6,30.01,NNW,342,0.0,1.0,97,0.00,,,0.04,meteohub,2013-04-15 13:04:00,
2013-04-15 09:09:00,56.5,55.6,30.01,NNW,343,0.0,1.0,97,0.00,,,0.04,meteohub,2013-04-15 13:09:00,
2013-04-15 09:14:00,56.7,55.8,30.01,SSE,160,1.0,1.0,97,0.00,,,0.04,meteohub,2013-04-15 13:14:00,
2013-04-15 09:19:00,56.7,55.8,30.01,SE,135,0.0,1.0,97,0.00,,,0.04,meteohub,2013-04-15 13:19:00,
2013-04-15 09:24:00,56.8,55.9,30.01,SE,141,0.0,1.0,97,0.00,,,0.04,meteohub,2013-04-15 13:24:00,
2013-04-15 09:29:00,56.8,55.9,30.01,NNW,338,0.0,1.0,97,0.00,,,0.04,meteohub,2013-04-15 13:29:00,
2013-04-15 09:34:00,57.0,56.1,30.01,NNW,337,0.0,1.0,97,0.00,,,0.04,meteohub,2013-04-15 13:34:00,
2013-04-15 09:39:00,57.0,56.1,30.01,NNW,337,1.0,1.0,97,0.00,,,0.04,meteohub,2013-04-15 13:39:00,
2013-04-15 09:44:00,57.2,56.3,30.01,NNW,345,0.0,1.0,97,0.00,,,0.04,meteohub,2013-04-15 13:44:00,
2013-04-15 09:50:00,57.2,56.3,30.01,NNW,345,0.0,1.0,97,0.00,,,0.04,meteohub,2013-04-15 13:50:00,
2013-04-15 09:55:00,57.4,56.5,30.02,West,262,0.0,2.0,97,0.00,,,0.04,meteohub,2013-04-15 13:55:00,
2013-04-15 10:00:00,57.6,56.7,30.02,West,263,0.0,2.0,97,0.00,,,0.04,meteohub,2013-04-15 14:00:00,
2013-04-15 10:05:00,57.6,56.7,30.02,West,262,0.0,1.0,97,0.00,,,0.04,meteohub,2013-04-15 14:05:00,
2013-04-15 10:10:00,57.7,56.8,30.02,SW,232,0.0,1.0,97,0.00,,,0.04,meteohub,2013-04-15 14:10:00,
2013-04-15 10:15:00,57.7,56.8,30.02,SW,232,0.0,1.0,97,0.00,,,0.04,meteohub,2013-04-15 14:15:00,
2013-04-15 10:20:00,57.9,56.8,30.02,NNW,341,0.0,1.0,96,0.00,,,0.04,meteohub,2013-04-15 14:20:00,
2013-04-15 10:25:00,57.9,56.8,30.02,SW,221,1.0,1.0,96,0.00,,,0.04,meteohub,2013-04-15 14:25:00,
2013-04-15 10:30:00,57.9,56.8,30.03,WNW,300,0.0,1.0,96,0.00,,,0.04,meteohub,2013-04-15 14:30:00,
2013-04-15 10:35:00,58.3,57.2,30.03,WNW,300,0.0,1.0,96,0.00,,,0.04,meteohub,2013-04-15 14:35:00,
2013-04-15 10:40:00,58.5,57.4,30.03,WNW,300,0.0,1.0,96,0.00,,,0.04,meteohub,2013-04-15 14:40:00,
2013-04-15 10:45:00,58.6,57.6,30.03,WNW,303,1.0,1.0,96,0.00,,,0.04,meteohub,2013-04-15 14:45:00,
2013-04-15 10:50:00,58.8,57.4,30.03,NW,304,0.0,1.0,95,0.00,,,0.04,meteohub,2013-04-15 14:50:00,
2013-04-15 10:55:00,59.2,57.7,30.03,NNW,328,0.0,1.0,95,0.00,,,0.04,meteohub,2013-04-15 14:55:00,
2013-04-15 11:00:00,59.5,58.1,30.03,WSW,250,0.0,1.0,95,0.00,,,0.04,meteohub,2013-04-15 15:00:00,
2013-04-15 11:05:00,59.9,58.1,30.03,SSW,208,0.0,1.0,94,0.00,,,0.04,meteohub,2013-04-15 15:05:00,
2013-04-15 11:10:00,60.3,58.5,30.03,WNW,301,1.0,1.0,94,0.00,,,0.04,meteohub,2013-04-15 15:10:00,
2013-04-15 11:15:00,60.6,58.6,30.03,NW,321,0.0,1.0,93,0.00,,,0.04,meteohub,2013-04-15 15:15:00,
2013-04-15 11:20:00,61.0,58.6,30.03,NW,317,0.0,1.0,92,0.00,,,0.04,meteohub,2013-04-15 15:20:00,
2013-04-15 11:25:00,61.3,58.6,30.04,NW,316,0.0,1.0,91,0.00,,,0.04,meteohub,2013-04-15 15:25:00,
2013-04-15 11:31:00,61.5,58.3,30.04,NW,318,0.0,1.0,89,0.00,,,0.04,meteohub,2013-04-15 15:31:00,
2013-04-15 11:32:00,61.5,58.3,30.03,NW,319,0.0,1.0,89,0.00,,,0.04,meteohub,2013-04-15 15:32:00,
2013-04-15 11:37:00,62.1,58.8,30.04,NW,317,0.0,1.0,89,0.00,,,0.04,meteohub,2013-04-15 15:37:00,
2013-04-15 11:42:00,62.8,59.2,30.03,WSW,240,0.0,1.0,88,0.00,,,0.04,meteohub,2013-04-15 15:42:00,
2013-04-15 11:47:00,63.7,59.4,30.03,WSW,238,1.0,1.0,86,0.00,,,0.04,meteohub,2013-04-15 15:47:00,
2013-04-15 11:52:00,63.7,58.8,30.04,South,181,0.0,2.0,84,0.00,,,0.04,meteohub,2013-04-15 15:52:00,
2013-04-15 11:57:00,64.0,59.2,30.04,WSW,248,0.0,2.0,84,0.00,,,0.04,meteohub,2013-04-15 15:57:00,
2013-04-15 12:03:00,64.2,59.5,30.03,West,266,0.0,1.0,85,0.00,,,0.04,meteohub,2013-04-15 16:03:00,
2013-04-15 12:08:00,64.9,59.9,30.03,West,266,0.0,1.0,84,0.00,,,0.04,meteohub,2013-04-15 16:08:00,
2013-04-15 12:13:00,65.7,59.7,30.03,NNW,343,1.0,3.0,81,0.00,,,0.04,meteohub,2013-04-15 16:13:00,
2013-04-15 12:18:00,66.6,60.6,30.03,SE,130,0.0,3.0,81,0.00,,,0.04,meteohub,2013-04-15 16:18:00,
2013-04-15 12:23:00,67.5,60.8,30.03,WSW,238,0.0,3.0,79,0.00,,,0.04,meteohub,2013-04-15 16:23:00,
2013-04-15 12:28:00,67.6,59.4,30.03,SW,217,1.0,3.0,75,0.00,,,0.04,meteohub,2013-04-15 16:28:00,
2013-04-15 12:33:00,67.5,59.5,30.03,NNW,337,1.0,2.0,76,0.00,,,0.04,meteohub,2013-04-15 16:33:00,
2013-04-15 12:38:00,66.7,58.6,30.04,NNW,345,1.0,1.0,75,0.00,,,0.04,meteohub,2013-04-15 16:38:00,
2013-04-15 12:43:00,66.0,58.3,30.03,NNW,345,0.0,2.0,76,0.00,,,0.04,meteohub,2013-04-15 16:43:00,
2013-04-15 12:48:00,65.8,58.5,30.03,NNW,345,0.0,2.0,77,0.00,,,0.04,meteohub,2013-04-15 16:48:00,
2013-04-15 12:53:00,66.0,59.0,30.03,SSW,204,0.0,2.0,78,0.00,,,0.04,meteohub,2013-04-15 16:53:00,
2013-04-15 12:58:00,66.4,58.6,30.03,North,357,1.0,2.0,76,0.00,,,0.04,meteohub,2013-04-15 16:58:00,
2013-04-15 13:03:00,66.4,57.4,30.03,NNW,327,0.0,2.0,73,0.00,,,0.04,meteohub,2013-04-15 17:03:00,
2013-04-15 13:09:00,66.6,58.1,30.02,South,170,1.0,2.0,74,0.00,,,0.04,meteohub,2013-04-15 17:09:00,
2013-04-15 13:14:00,67.1,58.5,30.02,NW,315,0.0,2.0,74,0.00,,,0.04,meteohub,2013-04-15 17:14:00,
2013-04-15 13:19:00,67.6,58.3,30.03,SSW,195,1.0,2.0,72,0.00,,,0.04,meteohub,2013-04-15 17:19:00,
2013-04-15 13:21:00,67.6,57.9,30.03,SSW,195,0.0,2.0,71,0.00,,,0.04,meteohub,2013-04-15 17:21:00,
2013-04-15 13:22:00,67.8,58.1,30.03,WSW,240,1.0,2.0,71,0.00,,,0.04,meteohub,2013-04-15 17:22:00,
2013-04-15 13:24:00,67.6,57.9,30.03,SW,232,0.0,2.0,71,0.00,,,0.04,meteohub,2013-04-15 17:24:00,
2013-04-15 13:30:00,67.8,57.7,30.03,WSW,248,1.0,2.0,70,0.00,,,0.04,meteohub,2013-04-15 17:30:00,
2013-04-15 13:35:00,67.8,57.7,30.03,WSW,245,0.0,2.0,70,0.00,,,0.04,meteohub,2013-04-15 17:35:00,
2013-04-15 13:40:00,67.8,57.2,30.03,WSW,255,0.0,2.0,69,0.00,,,0.04,meteohub,2013-04-15 17:40:00,
2013-04-15 13:45:00,68.2,58.1,30.03,WNW,290,0.0,1.0,70,0.00,,,0.04,meteohub,2013-04-15 17:45:00,
2013-04-15 13:50:00,68.7,57.7,30.03,SE,138,0.0,2.0,68,0.00,,,0.04,meteohub,2013-04-15 17:50:00,
2013-04-15 13:55:00,69.4,57.9,30.03,SSW,198,0.0,2.0,67,0.00,,,0.04,meteohub,2013-04-15 17:55:00,
2013-04-15 14:00:00,69.6,59.0,30.03,SW,236,0.0,2.0,69,0.00,,,0.04,meteohub,2013-04-15 18:00:00,
2013-04-15 14:05:00,70.0,59.0,30.02,NW,317,0.0,2.0,68,0.00,,,0.04,meteohub,2013-04-15 18:05:00,
2013-04-15 14:10:00,70.3,59.4,30.02,NNW,332,1.0,2.0,68,0.00,,,0.04,meteohub,2013-04-15 18:10:00,
2013-04-15 14:15:00,70.3,58.1,30.03,SW,232,1.0,2.0,65,0.00,,,0.04,meteohub,2013-04-15 18:15:00,
2013-04-15 14:20:00,70.3,58.1,30.03,SW,226,0.0,2.0,65,0.00,,,0.04,meteohub,2013-04-15 18:20:00,
2013-04-15 14:25:00,70.3,58.1,30.03,South,170,0.0,2.0,65,0.00,,,0.04,meteohub,2013-04-15 18:25:00,
2013-04-15 14:29:00,70.5,58.6,30.03,South,180,0.0,2.0,66,0.00,,,0.04,meteohub,2013-04-15 18:29:00,
2013-04-15 14:30:00,70.5,58.6,30.03,South,180,1.0,2.0,66,0.00,,,0.04,meteohub,2013-04-15 18:30:00,
2013-04-15 14:35:00,70.5,57.4,30.03,West,271,1.0,2.0,63,0.00,,,0.04,meteohub,2013-04-15 18:35:00,
2013-04-15 14:40:00,70.5,58.1,30.03,SW,219,0.0,1.0,65,0.00,,,0.04,meteohub,2013-04-15 18:40:00,
2013-04-15 14:45:00,70.5,58.1,30.03,West,263,0.0,1.0,65,0.00,,,0.04,meteohub,2013-04-15 18:45:00,
2013-04-15 14:50:00,71.1,58.3,30.03,SW,226,0.0,2.0,64,0.00,,,0.04,meteohub,2013-04-15 18:50:00,
2013-04-15 14:55:00,71.8,59.0,30.03,West,259,1.0,2.0,64,0.00,,,0.04,meteohub,2013-04-15 18:55:00,
2013-04-15 15:00:00,72.3,59.0,30.03,NNW,335,1.0,3.0,63,0.00,,,0.04,meteohub,2013-04-15 19:00:00,
2013-04-15 15:05:00,72.3,59.0,30.03,WSW,253,1.0,3.0,63,0.00,,,0.04,meteohub,2013-04-15 19:05:00,
2013-04-15 15:10:00,72.0,58.6,30.03,WSW,248,1.0,3.0,63,0.00,,,0.04,meteohub,2013-04-15 19:10:00,
2013-04-15 15:15:00,72.1,59.7,30.03,WNW,300,1.0,2.0,65,0.00,,,0.04,meteohub,2013-04-15 19:15:00,
2013-04-15 15:20:00,72.3,59.0,30.02,NNW,343,0.0,2.0,63,0.00,,,0.04,meteohub,2013-04-15 19:20:00,
2013-04-15 15:25:00,72.3,58.6,30.02,South,184,0.0,2.0,62,0.00,,,0.04,meteohub,2013-04-15 19:25:00,
2013-04-15 15:30:00,72.1,58.5,30.02,NNW,339,0.0,2.0,62,0.00,,,0.04,meteohub,2013-04-15 19:30:00,
2013-04-15 15:35:00,72.7,58.8,30.02,SSE,166,1.0,2.0,62,0.00,,,0.04,meteohub,2013-04-15 19:35:00,
2013-04-15 15:40:00,73.2,59.0,30.02,South,174,0.0,2.0,61,0.00,,,0.04,meteohub,2013-04-15 19:40:00,
2013-04-15 15:46:00,73.8,59.0,30.02,SSE,162,1.0,3.0,60,0.00,,,0.04,meteohub,2013-04-15 19:46:00,
2013-04-15 15:52:00,73.6,59.4,30.02,SW,229,0.0,3.0,61,0.00,,,0.04,meteohub,2013-04-15 19:52:00,
2013-04-15 15:57:00,73.8,59.0,30.02,South,180,0.0,3.0,60,0.00,,,0.04,meteohub,2013-04-15 19:57:00,
2013-04-15 15:59:00,73.8,59.0,30.02,North,356,1.0,3.0,60,0.00,,,0.04,meteohub,2013-04-15 19:59:00,
2013-04-15 16:02:00,73.2,59.0,30.02,NNW,342,0.0,2.0,61,0.00,,,0.04,meteohub,2013-04-15 20:02:00,
2013-04-15 16:03:00,73.2,59.4,30.02,NNW,336,0.0,2.0,62,0.00,,,0.04,meteohub,2013-04-15 20:03:00,
2013-04-15 16:08:00,72.9,59.0,30.01,NNW,345,0.0,3.0,62,0.00,,,0.04,meteohub,2013-04-15 20:08:00,
2013-04-15 16:13:00,72.9,59.0,30.01,South,172,0.0,3.0,62,0.00,,,0.04,meteohub,2013-04-15 20:13:00,
2013-04-15 16:18:00,72.5,58.8,30.01,SW,221,0.0,3.0,62,0.00,,,0.04,meteohub,2013-04-15 20:18:00,
2013-04-15 16:23:00,72.3,58.1,30.01,East,98,0.0,3.0,61,0.00,,,0.04,meteohub,2013-04-15 20:23:00,
2013-04-15 16:28:00,72.3,58.6,30.01,NW,321,0.0,2.0,62,0.00,,,0.04,meteohub,2013-04-15 20:28:00,
2013-04-15 16:33:00,72.1,58.8,30.01,SSW,208,1.0,3.0,63,0.00,,,0.04,meteohub,2013-04-15 20:33:00,
2013-04-15 16:38:00,72.1,58.5,30.01,WSW,246,1.0,3.0,62,0.00,,,0.04,meteohub,2013-04-15 20:38:00,
2013-04-15 16:43:00,72.3,59.0,30.01,North,354,2.0,3.0,63,0.00,,,0.04,meteohub,2013-04-15 20:43:00,
2013-04-15 16:48:00,72.5,58.8,30.01,NNW,340,0.0,2.0,62,0.00,,,0.04,meteohub,2013-04-15 20:48:00,
2013-04-15 16:53:00,72.9,59.0,30.01,NNW,333,1.0,3.0,62,0.00,,,0.04,meteohub,2013-04-15 20:53:00,
2013-04-15 16:58:00,72.7,58.5,30.00,NW,316,0.0,3.0,61,0.00,,,0.04,meteohub,2013-04-15 20:58:00,
2013-04-15 17:03:00,72.3,58.1,30.00,NW,318,0.0,3.0,61,0.00,,,0.04,meteohub,2013-04-15 21:03:00,
2013-04-15 17:08:00,72.5,58.8,30.00,North,354,1.0,2.0,62,0.00,,,0.04,meteohub,2013-04-15 21:08:00,
2013-04-15 17:13:00,72.3,58.1,30.00,NNW,334,0.0,3.0,61,0.00,,,0.04,meteohub,2013-04-15 21:13:00,
2013-04-15 17:18:00,72.0,58.3,30.00,SSE,152,1.0,3.0,62,0.00,,,0.04,meteohub,2013-04-15 21:18:00,
2013-04-15 17:23:00,72.1,58.8,30.00,North,1,0.0,3.0,63,0.00,,,0.04,meteohub,2013-04-15 21:23:00,
2013-04-15 17:28:00,72.7,58.8,30.00,NW,308,0.0,2.0,62,0.00,,,0.04,meteohub,2013-04-15 21:28:00,
2013-04-15 17:34:00,73.0,59.2,30.00,WSW,252,0.0,3.0,62,0.00,,,0.04,meteohub,2013-04-15 21:34:00,
2013-04-15 17:39:00,73.2,59.0,30.00,WNW,300,0.0,3.0,61,0.00,,,0.04,meteohub,2013-04-15 21:39:00,
2013-04-15 17:44:00,73.2,59.0,30.01,NNE,30,0.0,3.0,61,0.00,,,0.04,meteohub,2013-04-15 21:44:00,
2013-04-15 17:49:00,73.0,58.8,30.01,SSW,207,1.0,3.0,61,0.00,,,0.04,meteohub,2013-04-15 21:49:00,
2013-04-15 17:54:00,72.9,58.6,30.01,WNW,302,0.0,3.0,61,0.00,,,0.04,meteohub,2013-04-15 21:54:00,
2013-04-15 17:59:00,72.7,58.5,30.01,North,8,0.0,2.0,61,0.00,,,0.04,meteohub,2013-04-15 21:59:00,
2013-04-15 18:04:00,72.3,58.1,30.01,NW,311,0.0,2.0,61,0.00,,,0.04,meteohub,2013-04-15 22:04:00,
2013-04-15 18:09:00,72.1,58.5,30.01,West,267,0.0,1.0,62,0.00,,,0.04,meteohub,2013-04-15 22:09:00,
2013-04-15 18:14:00,71.8,58.1,30.01,SSE,147,0.0,1.0,62,0.00,,,0.04,meteohub,2013-04-15 22:14:00,
2013-04-15 18:19:00,71.4,58.6,30.01,SSE,148,0.0,1.0,64,0.00,,,0.04,meteohub,2013-04-15 22:19:00,
2013-04-15 18:24:00,71.4,58.1,30.02,SSW,200,0.0,1.0,63,0.00,,,0.04,meteohub,2013-04-15 22:24:00,
2013-04-15 18:29:00,71.4,58.1,30.02,SSW,195,0.0,1.0,63,0.00,,,0.04,meteohub,2013-04-15 22:29:00,
2013-04-15 18:34:00,71.8,58.5,30.02,South,191,1.0,1.0,63,0.00,,,0.04,meteohub,2013-04-15 22:34:00,
2013-04-15 18:39:00,72.0,58.3,30.02,SE,141,0.0,2.0,62,0.00,,,0.04,meteohub,2013-04-15 22:39:00,
2013-04-15 18:44:00,72.1,58.5,30.02,SE,143,0.0,5.0,62,0.00,,,0.04,meteohub,2013-04-15 22:44:00,
2013-04-15 18:49:00,72.5,59.2,30.02,SE,141,0.0,5.0,63,0.00,,,0.04,meteohub,2013-04-15 22:49:00,
2013-04-15 18:54:00,72.7,58.5,30.02,SW,224,0.0,5.0,61,0.00,,,0.04,meteohub,2013-04-15 22:54:00,
2013-04-15 18:59:00,72.7,58.8,30.02,West,280,0.0,2.0,62,0.00,,,0.04,meteohub,2013-04-15 22:59:00,
2013-04-15 19:04:00,72.7,59.4,30.03,NNE,13,1.0,3.0,63,0.00,,,0.04,meteohub,2013-04-15 23:04:00,
2013-04-15 19:09:00,72.7,58.8,30.03,WSW,242,0.0,3.0,62,0.00,,,0.04,meteohub,2013-04-15 23:09:00,
2013-04-15 19:14:00,72.3,59.0,30.03,SW,231,0.0,1.0,63,0.00,,,0.04,meteohub,2013-04-15 23:14:00,
2013-04-15 19:19:00,71.8,59.0,30.03,West,270,0.0,1.0,64,0.00,,,0.04,meteohub,2013-04-15 23:19:00,
2013-04-15 19:24:00,71.4,59.5,30.03,West,271,0.0,1.0,66,0.00,,,0.04,meteohub,2013-04-15 23:24:00,
2013-04-15 19:29:00,71.2,59.4,30.03,West,271,0.0,1.0,66,0.00,,,0.04,meteohub,2013-04-15 23:29:00,
2013-04-15 19:34:00,71.1,59.5,30.04,West,270,0.0,1.0,67,0.00,,,0.04,meteohub,2013-04-15 23:34:00,
2013-04-15 19:39:00,70.9,59.4,30.04,West,270,0.0,1.0,67,0.00,,,0.04,meteohub,2013-04-15 23:39:00,
2013-04-15 19:44:00,70.5,59.4,30.04,WNW,291,0.0,1.0,68,0.00,,,0.04,meteohub,2013-04-15 23:44:00,
2013-04-15 19:49:00,70.2,59.5,30.04,WNW,288,0.0,1.0,69,0.00,,,0.04,meteohub,2013-04-15 23:49:00,
2013-04-15 19:54:00,70.0,59.7,30.04,SSE,162,0.0,1.0,70,0.00,,,0.04,meteohub,2013-04-15 23:54:00,
2013-04-15 19:59:00,69.6,59.7,30.04,SSE,162,0.0,1.0,71,0.00,,,0.04,meteohub,2013-04-15 23:59:00,
2013-04-15 20:04:00,69.4,59.5,30.05,SSE,162,0.0,1.0,71,0.00,,,0.04,meteohub,2013-04-16 00:04:00,
2013-04-15 20:09:00,69.1,59.7,30.05,SSE,162,0.0,1.0,72,0.00,,,0.04,meteohub,2013-04-16 00:09:00,
2013-04-15 20:14:00,68.7,59.7,30.05,SSE,158,0.0,0.0,73,0.00,,,0.04,meteohub,2013-04-16 00:14:00,
2013-04-15 20:19:00,68.5,59.5,30.05,SE,145,0.0,1.0,73,0.00,,,0.04,meteohub,2013-04-16 00:19:00,
2013-04-15 20:24:00,68.2,59.2,30.05,WSW,246,0.0,1.0,73,0.00,,,0.04,meteohub,2013-04-16 00:24:00,
2013-04-15 20:29:00,68.0,59.4,30.05,SSE,158,0.0,1.0,74,0.00,,,0.04,meteohub,2013-04-16 00:29:00,
2013-04-15 20:34:00,67.8,59.5,30.06,SSE,166,0.0,1.0,75,0.00,,,0.04,meteohub,2013-04-16 00:34:00,
2013-04-15 20:39:00,67.6,59.4,30.06,SSE,166,0.0,1.0,75,0.00,,,0.04,meteohub,2013-04-16 00:39:00,
2013-04-15 20:45:00,67.3,59.5,30.06,SSE,166,0.0,1.0,76,0.00,,,0.04,meteohub,2013-04-16 00:45:00,
2013-04-15 20:50:00,67.1,59.4,30.06,SSE,167,0.0,0.0,76,0.00,,,0.04,meteohub,2013-04-16 00:50:00,
2013-04-15 20:55:00,66.7,59.7,30.06,SSE,166,0.0,0.0,78,0.00,,,0.04,meteohub,2013-04-16 00:55:00,
2013-04-15 21:00:00,66.6,59.9,30.07,SSE,167,0.0,1.0,79,0.00,,,0.04,meteohub,2013-04-16 01:00:00,
2013-04-15 21:05:00,66.4,59.7,30.07,SSE,166,0.0,1.0,79,0.00,,,0.04,meteohub,2013-04-16 01:05:00,
2013-04-15 21:10:00,66.2,59.9,30.07,SSE,166,0.0,1.0,80,0.00,,,0.04,meteohub,2013-04-16 01:10:00,
2013-04-15 21:15:00,66.0,59.7,30.08,SSE,166,0.0,0.0,80,0.00,,,0.04,meteohub,2013-04-16 01:15:00,
2013-04-15 21:20:00,66.0,59.7,30.08,SSE,167,0.0,0.0,80,0.00,,,0.04,meteohub,2013-04-16 01:20:00,
2013-04-15 21:25:00,66.0,59.7,30.08,SSE,162,0.0,0.0,80,0.00,,,0.04,meteohub,2013-04-16 01:25:00,
2013-04-15 21:30:00,66.0,59.7,30.08,SSE,162,0.0,0.0,80,0.00,,,0.04,meteohub,2013-04-16 01:30:00,
2013-04-15 21:35:00,66.0,59.7,30.09,SSE,166,0.0,1.0,80,0.00,,,0.04,meteohub,2013-04-16 01:35:00,
2013-04-15 21:40:00,66.0,60.1,30.09,SW,221,0.0,1.0,81,0.00,,,0.04,meteohub,2013-04-16 01:40:00,
2013-04-15 21:45:00,66.0,60.1,30.09,SSE,155,0.0,1.0,81,0.00,,,0.04,meteohub,2013-04-16 01:45:00,
2013-04-15 21:50:00,66.0,60.1,30.09,SSE,155,0.0,1.0,81,0.00,,,0.04,meteohub,2013-04-16 01:50:00,
2013-04-15 21:55:00,66.0,60.1,30.10,SSE,155,0.0,1.0,81,0.00,,,0.04,meteohub,2013-04-16 01:55:00,
2013-04-15 22:00:00,65.8,59.9,30.10,South,179,0.0,1.0,81,0.00,,,0.04,meteohub,2013-04-16 02:00:00,
2013-04-15 22:05:00,65.8,59.9,30.10,South,181,0.0,1.0,81,0.00,,,0.04,meteohub,2013-04-16 02:05:00,
2013-04-15 22:10:00,65.8,59.9,30.10,South,181,0.0,1.0,81,0.00,,,0.04,meteohub,2013-04-16 02:10:00,
2013-04-15 22:15:00,65.7,60.1,30.10,South,181,0.0,0.0,82,0.00,,,0.04,meteohub,2013-04-16 02:15:00,
2013-04-15 22:20:00,65.5,59.9,30.10,South,183,0.0,1.0,82,0.00,,,0.04,meteohub,2013-04-16 02:20:00,
2013-04-15 22:25:00,65.1,59.9,30.10,South,183,0.0,1.0,83,0.00,,,0.04,meteohub,2013-04-16 02:25:00,
2013-04-15 22:30:00,65.1,59.9,30.10,South,183,0.0,1.0,83,0.00,,,0.04,meteohub,2013-04-16 02:30:00,
2013-04-15 22:35:00,64.9,59.7,30.11,South,183,0.0,0.0,83,0.00,,,0.04,meteohub,2013-04-16 02:35:00,
2013-04-15 22:40:00,64.9,59.9,30.11,South,183,0.0,0.0,84,0.00,,,0.04,meteohub,2013-04-16 02:40:00,
2013-04-15 22:45:00,64.8,59.9,30.11,South,183,0.0,0.0,84,0.00,,,0.04,meteohub,2013-04-16 02:45:00,
2013-04-15 22:50:00,64.6,59.7,30.11,South,183,0.0,0.0,84,0.00,,,0.04,meteohub,2013-04-16 02:50:00,
2013-04-15 22:55:00,64.6,59.9,30.11,South,183,0.0,0.0,85,0.00,,,0.04,meteohub,2013-04-16 02:55:00,
2013-04-15 23:00:00,64.4,59.7,30.11,South,183,0.0,0.0,85,0.00,,,0.04,meteohub,2013-04-16 03:00:00,
2013-04-15 23:05:00,64.2,59.5,30.11,South,183,0.0,0.0,85,0.00,,,0.04,meteohub,2013-04-16 03:05:00,
2013-04-15 23:10:00,64.2,59.9,30.12,South,183,0.0,0.0,86,0.00,,,0.04,meteohub,2013-04-16 03:10:00,
2013-04-15 23:15:00,64.2,59.9,30.12,South,183,0.0,0.0,86,0.00,,,0.04,meteohub,2013-04-16 03:15:00,
2013-04-15 23:20:00,64.2,59.9,30.12,South,183,0.0,0.0,86,0.00,,,0.04,meteohub,2013-04-16 03:20:00,
2013-04-15 23:25:00,64.0,59.7,30.12,South,183,0.0,0.0,86,0.00,,,0.04,meteohub,2013-04-16 03:25:00,
2013-04-15 23:30:00,64.2,59.9,30.12,South,176,0.0,0.0,86,0.00,,,0.04,meteohub,2013-04-16 03:30:00,
2013-04-15 23:35:00,64.2,59.9,30.12,South,176,0.0,0.0,86,0.00,,,0.04,meteohub,2013-04-16 03:35:00,
2013-04-15 23:40:00,64.2,59.9,30.12,South,176,0.0,0.0,86,0.00,,,0.04,meteohub,2013-04-16 03:40:00,
2013-04-15 23:45:00,64.2,59.9,30.13,South,176,0.0,0.0,86,0.00,,,0.04,meteohub,2013-04-16 03:45:00,
2013-04-15 23:50:00,64.2,59.9,30.13,South,176,0.0,0.0,86,0.00,,,0.04,meteohub,2013-04-16 03:50:00,
2013-04-15 23:55:00,64.2,59.9,30.12,South,176,0.0,0.0,86,0.00,,,0.04,meteohub,2013-04-16 03:55:00,